Overview Statistics Trail Chart Weather Telemetry Raw packets
 

This is the latest recevied weather packets stored in our database for station/object N0QV. If no packets are shown the sender has not sent any weather packets the latest 10 day(s).

<< 16 17 18 19 20 21 22 >>
Time Temp. Humidity Pressure Rain* Wind** Luminosity Snow
1788557397 33.89° C 67% 1012 hPa 0 mm - 373 W/m² -
1788557097 33.33° C 68% 1012.1 hPa 0 mm - 356 W/m² -
1788556792 33.89° C 68% 1012.2 hPa 0 mm - 420 W/m² -
1788556492 33.89° C 67% 1012.2 hPa 0 mm - 429 W/m² -
1788556188 33.33° C 68% 1012.2 hPa 0 mm - 435 W/m² -
1788555886 33.89° C 66% 1012.1 hPa 0 mm - 439 W/m² -
1788555582 33.89° C 65% 1012.2 hPa 0 mm - 466 W/m² -
1788555278 33.89° C 65% 1012.2 hPa 0 mm - 451 W/m² -
1788554975 33.89° C 66% 1012.1 hPa 0 mm - 476 W/m² -
1788554670 33.89° C 67% 1012.1 hPa 0 mm - 514 W/m² -
1788554367 33.89° C 67% 1012.2 hPa 0 mm - 259 W/m² -
1788554063 33.89° C 62% 1012.2 hPa 0 mm - 106 W/m² -
1788553758 33.89° C 61% 1012.2 hPa 0 mm - 479 W/m² -
1788553454 34.44° C 61% 1012.2 hPa 0 mm - 494 W/m² -
1788553150 34.44° C 60% 1011.9 hPa 0 mm - 510 W/m² -
1788552845 33.89° C 63% 1012.1 hPa 0 mm - 552 W/m² -
1788552540 35° C 58% 1011.9 hPa 0 mm - 556 W/m² -
1788552239 34.44° C 60% 1012 hPa 0 mm - 532 W/m² -
1788551934 33.89° C 59% 1012.1 hPa 0 mm - 527 W/m² -
1788551632 33.89° C 62% 1012 hPa 0 mm - 509 W/m² -
1788551327 33.89° C 60% 1011.9 hPa 0 mm - 556 W/m² -
1788551026 33.89° C 60% 1011.9 hPa 0 mm - 573 W/m² -
1788550721 33.89° C 60% 1012 hPa 0 mm - 579 W/m² -
1788550417 34.44° C 58% 1011.9 hPa 0 mm - 576 W/m² -
1788550112 33.89° C 60% 1011.9 hPa 0 mm - 576 W/m² -

* Rain latest hour (hover to see other rain measurements)
** Current wind speed in m/s (hover to see current wind gust speed)